Hourly Data Report for October 13, 2015

All times are specified in Local Standard Time (LST). Add 1 hour to adjust for Daylight Saving Time where and when it is observed.

KAMLOOPS A
BRITISH COLUMBIA

50°42'09.000" N
120°26'55.000" W
345.30 m
1163781
71887
YKA

Download Data

Hourly Data (October 2015)
Hourly Data Report for October 13, 2015
Temp Definition
°C
Dew Point Temp Definition
°C
Rel Hum Definition
%
Wind Dir Definition
10's deg

Wind Spd Definition
km/h
Visibility Definition
km
Stn Press Definition
kPa
Hmdx Definition


Wind Chill Definition


Weather Definition


TIME
00:00 Legend Double Dagger 6.9 4.1 82 36 1 64.4 97.92     LegendNANA
01:00 Legend Double Dagger 5.3 3.0 85 36 3 64.4 97.93     Clear
02:00 Legend Double Dagger 3.6 2.1 90 36 1 64.4 97.98     LegendNANA
03:00 Legend Double Dagger 4.6 2.8 88 5 3 64.4 98.01     LegendNANA
04:00 Legend Double Dagger 3.9 2.4 90 36 2 64.4 98.03     Clear
05:00 Legend Double Dagger 4.7 3.5 92 16 4 64.4 98.08     LegendNANA
06:00 Legend Double Dagger 3.2 2.0 92 10 3 64.4 98.13     LegendNANA
07:00 Legend Double Dagger 3.6 2.1 90 5 5 64.4 98.16     Mostly Cloudy
08:00 Legend Double Dagger 5.6 3.6 87 15 3 64.4 98.24     LegendNANA
09:00 Legend Double Dagger 7.5 4.1 79 10 8 64.4 98.27     LegendNANA
10:00 Legend Double Dagger 9.2 4.4 72 16 5 64.4 98.28     Mostly Cloudy
11:00 Legend Double Dagger 10.8 4.7 66 29 9 64.4 98.24     LegendNANA
12:00 Legend Double Dagger 12.2 4.7 60 21 5 64.4 98.22     LegendNANA
13:00 Legend Double Dagger 13.6 4.8 55 26 7 64.4 98.15     Clear
14:00 Legend Double Dagger 14.9 4.1 48 24 4 64.4 98.09     LegendNANA
15:00 Legend Double Dagger 16.1 3.3 42 36 3 64.4 98.06     LegendNANA
16:00 Legend Double Dagger 16.1 1.9 38 25 4 64.4 98.04     Clear
17:00 Legend Double Dagger 13.4 3.5 51 36 3 64.4 98.02     LegendNANA
18:00 Legend Double Dagger 9.9 2.3 59 29 3 64.4 98.03     LegendNANA
19:00 Legend Double Dagger 10.2 2.8 60 16 4 64.4 98.10     Clear
20:00 Legend Double Dagger 7.4 1.5 66 36 1 64.4 98.16     LegendNANA
21:00 Legend Double Dagger 6.4 0.9 68 36 1 64.4 98.22     LegendNANA
22:00 Legend Double Dagger 7.2 0.4 62 0 1 64.4 98.27     Clear
23:00 Legend Double Dagger 3.8 0.1 77 14 4 64.4 98.32     LegendNANA

Notes on Data Quality.

Legend

  • E = Estimated
  • M = Missing
  • NA = Not Available
  • ‡ = Partner data that is not subject to review by the National Climate Archives
Date modified: